Wind_Speed
30 28 26 28 31 32 26 24 22 26 31 37 22 28 34 31 10 31 61 63 60 62 64 68 72 69 68 71 71 66 83 88 85 87 99 98 90 83 81 83 84 84 85 84
27 28 32 33 20 20 29 25 25 27 18 26 39 31 34 39 45 66 72 67 68 66 69 76 70 67 65 73 76 81 82 88 88 97 107 85 79 82 80 77 74 73 73 72
28 33 32 21 20 18 28 28 27 36 43 43 38 37 54 57 57 69 71 71 63 59 56 56 59 71 77 76 75 82 85 90 95 101 84 79 77 75 71 69 66 64 62 61
33 35 28 17 15 19 28 28 34 46 58 51 48 45 48 53 54 57 60 50 37 38 46 60 67 74 69 77 85 92 92 98 104 85 83 81 79 72 66 61 57 53 54 55
30 28 21 21 30 33 31 32 44 59 62 60 53 47 48 46 43 54 53 52 52 51 59 68 74 81 85 92 94 97 96 102 86 83 81 72 65 59 53 47 47 49 51 51
23 19 19 24 30 35 38 37 54 60 58 51 49 46 41 42 49 54 62 67 70 75 73 80 80 90 94 94 93 93 93 82 79 74 68 57 50 43 40 42 43 42 41 40
24 22 23 25 33 42 46 49 51 50 51 45 41 41 41 50 56 54 57 64 64 66 71 77 83 85 89 93 94 85 77 72 68 60 51 43 36 34 36 36 36 35 35 37
24 23 22 29 34 41 46 52 53 50 45 39 35 37 35 39 41 42 47 54 62 66 73 78 85 91 85 79 72 66 66 63 52 45 38 31 30 31 30 30 32 34 36 35
26 31 33 32 34 42 49 52 53 52 46 42 37 36 35 35 42 44 50 56 67 68 68 68 62 65 70 69 66 64 60 49 42 35 28 26 26 26 25 27 30 33 35 32
28 32 36 39 42 48 51 53 54 53 47 41 40 36 31 31 33 35 38 41 42 44 50 55 56 56 58 60 58 56 47 40 32 25 22 22 22 21 21 23 25 30 32 27
32 34 37 40 45 51 55 59 59 55 50 46 41 41 40 37 39 43 40 41 44 44 47 49 50 47 43 43 45 42 37 33 25 19 17 17 15 16 19 20 22 26 29 29
36 36 38 44 46 49 51 53 59 58 53 51 46 44 42 43 43 47 49 47 48 52 50 50 52 52 44 42 40 36 30 27 18 14 11 9 10 16 21 24 23 23 26 29
37 38 39 43 46 48 53 57 59 60 58 53 49 48 45 46 47 48 49 49 50 54 54 52 51 53 49 45 41 35 28 20 13 8 4 3 8 12 15 19 25 23 24 28
39 41 45 47 48 50 54 56 60 63 61 55 51 51 48 48 46 50 51 52 53 56 56 53 50 52 51 45 41 33 25 16 10 4 2 2 7 11 14 15 15 21 25 27
41 43 45 47 51 53 55 57 63 65 66 61 58 55 53 52 52 53 55 55 55 57 55 52 53 50 50 45 40 31 23 13 8 6 5 2 7 10 11 11 14 13 16 22
42 42 46 49 53 57 58 60 66 70 71 67 66 62 58 56 54 53 54 56 58 60 59 53 53 48 47 43 38 32 21 12 10 9 8 5 6 9 7 10 13 15 18 21
42 45 47 51 55 59 61 65 67 71 74 71 70 69 68 62 56 55 56 59 60 61 56 55 54 49 46 43 36 32 20 14 12 13 12 9 6 4 2 7 10 12 17 19
43 45 49 52 56 61 63 69 69 72 76 74 73 73 71 70 60 62 60 58 64 58 56 60 57 51 45 42 35 29 23 14 15 17 15 12 9 6 4 7 8 11 16 18
43 46 50 53 58 62 66 71 75 77 78 78 79 79 78 76 68 67 67 64 59 59 65 67 59 51 44 40 35 28 23 17 17 21 17 15 12 10 9 11 10 11 14 15
44 47 51 56 58 62 67 74 77 82 81 81 83 84 82 75 74 78 74 71 70 68 66 62 58 49 40 39 33 29 24 20 18 23 22 19 14 13 14 15 15 15 17 14
44 48 51 56 59 63 72 77 80 83 85 85 87 89 88 86 86 86 83 80 76 68 63 58 50 43 46 30 30 29 27 22 20 24 27 24 19 17 18 19 20 20 21 18
47 51 54 58 62 69 76 80 85 85 89 90 92 96 99 93 93 88 83 79 75 69 64 59 53 44 44 44 40 35 31 27 22 23 29 31 26 22 21 24 26 25 24 23
50 52 57 60 66 72 76 82 84 87 89 93 96 104 100 95 87 79 70 64 61 58 54 53 52 49 46 49 49 43 37 31 27 24 27 34 35 30 27 25 29 31 29 30
51 54 59 63 70 74 79 83 86 89 93 96 104 104 97 89 77 68 61 55 49 45 43 41 40 41 43 45 47 46 42 36 32 29 28 32 40 38 33 32 31 35 34 34
53 57 62 68 72 76 81 83 87 92 96 101 105 96 87 75 68 60 56 50 45 41 38 35 32 33 33 38 41 43 45 38 35 34 32 33 37 42 43 39 37 37 40 38
56 61 64 70 76 81 83 86 91 94 98 104 95 86 74 67 59 55 50 45 39 36 34 32 29 27 28 31 37 41 47 47 43 39 38 38 38 39 47 48 44 43 43 43
Wind_Direction
320 317 309 309 313 304 292 294 296 294 272 241 269 255 284 224 325 283 299 293 305 302 296 292 299 292 292 299 302 295 301 303 297 298 303 303 295 295 290 286 285 283 281 280
319 325 317 320 317 322 320 328 321 318 300 281 265 232 238 246 264 284 290 293 295 293 288 292 291 291 299 303 300 300 298 298 298 299 303 301 297 295 295 293 291 289 287 286
323 318 316 313 306 315 317 317 319 318 320 307 295 269 251 273 276 282 287 286 292 305 297 291 296 297 297 302 294 300 301 301 300 301 299 299 300 301 300 299 297 296 294 291
322 320 324 323 323 307 284 298 296 312 315 313 303 287 273 269 272 288 287 294 289 267 276 290 292 294 297 297 296 299 299 302 304 303 304 304 305 305 304 303 302 299 297 296
326 329 326 328 326 326 319 303 303 306 308 306 300 291 283 278 274 276 269 278 280 277 264 275 282 288 291 294 295 299 302 303 301 302 304 305 306 305 304 304 304 302 301 300
331 322 317 321 327 324 326 307 311 307 309 309 300 293 284 281 276 276 275 275 276 273 276 279 279 284 287 293 297 302 299 300 302 304 305 307 306 306 308 309 309 307 305 306
323 332 328 319 322 326 328 325 322 317 318 315 306 299 287 275 275 276 274 273 279 282 282 285 287 290 293 292 294 296 301 305 305 306 308 308 309 311 313 315 317 318 322 325
322 322 314 307 319 327 331 330 336 332 329 326 318 311 299 282 280 284 282 280 280 281 282 281 282 284 291 292 295 305 307 309 311 311 311 312 315 316 318 325 332 336 339 337
319 324 328 327 328 334 338 342 346 342 338 334 327 319 308 297 286 281 283 284 283 281 288 293 295 300 300 303 307 310 313 313 313 312 314 319 317 319 326 335 347 348 353 351
314 319 328 332 333 335 340 344 350 347 344 337 334 332 333 319 310 308 305 306 311 319 320 317 314 312 309 309 311 312 314 315 314 315 322 320 325 330 342 346 358 3 7 9
313 317 322 323 324 331 337 345 347 351 347 342 339 335 334 333 333 331 334 337 329 324 322 322 322 324 319 316 316 315 317 318 321 323 324 331 345 9 12 9 14 19 25 32
314 317 322 323 324 331 334 340 344 351 349 345 341 337 336 333 333 332 337 340 334 334 334 332 332 333 335 330 327 322 325 324 326 324 328 357 37 36 31 29 29 33 42 51
315 317 319 322 325 328 334 341 344 348 349 346 339 336 333 331 331 331 327 332 336 337 336 335 332 332 338 337 335 330 331 324 323 316 335 60 37 21 24 33 39 44 53 60
317 316 318 324 330 333 336 338 340 344 345 346 340 337 332 331 326 326 327 327 332 334 335 337 334 332 335 337 337 332 332 321 314 283 205 61 18 16 21 29 47 55 66 73
314 314 316 324 329 333 335 336 338 340 343 345 342 338 332 330 328 326 325 325 326 329 331 332 334 329 331 336 337 333 331 312 293 248 225 271 350 3 24 38 55 70 73 79
312 312 315 324 329 331 334 335 337 338 341 341 341 340 337 331 327 324 323 325 322 324 328 328 330 327 326 331 332 331 327 298 267 243 228 252 331 359 28 71 72 76 85 89
311 312 318 324 326 329 331 334 335 337 338 338 339 338 336 334 330 325 324 322 318 321 321 324 325 323 321 324 326 328 320 296 253 242 243 264 290 335 76 107 93 93 93 93
313 315 319 323 324 328 328 330 332 335 336 335 335 335 335 333 331 323 323 320 317 318 315 321 321 318 316 316 319 320 316 296 253 245 251 260 270 259 225 158 125 117 112 108
315 316 321 323 327 327 325 328 330 332 334 333 333 334 334 333 326 322 321 319 320 310 311 312 313 314 310 309 311 309 312 291 254 242 247 251 253 240 219 189 164 151 144 130
314 319 325 325 326 323 324 327 329 331 333 332 332 332 332 328 323 320 318 315 312 308 305 304 305 307 300 301 300 301 299 294 267 241 238 245 236 231 213 201 188 181 171 161
315 320 325 322 323 322 324 327 328 331 330 331 329 330 328 325 321 320 316 312 309 305 302 300 299 297 296 290 296 295 290 287 271 249 234 235 235 225 218 209 205 198 192 188
319 323 325 324 322 323 325 327 329 330 329 328 328 327 326 323 321 318 313 308 304 300 296 292 291 286 287 287 286 285 278 274 272 257 237 230 233 229 219 214 213 210 206 203
321 322 321 321 320 323 326 326 328 326 328 326 327 325 326 323 320 316 312 308 304 301 297 290 284 278 267 267 273 275 267 261 261 258 244 231 228 230 226 218 217 216 214 212
320 320 321 320 321 323 325 326 326 327 326 326 327 328 327 326 324 321 319 316 310 302 295 292 286 277 269 263 261 263 261 256 249 252 249 237 230 227 230 226 221 218 220 219
317 319 318 320 322 324 324 325 325 326 328 328 329 328 327 328 328 327 324 322 317 311 304 298 291 282 273 261 253 253 258 252 239 243 247 245 234 228 228 229 226 223 221 225
317 320 321 321 323 326 325 325 327 327 329 329 330 329 332 335 335 335 334 331 327 321 313 305 299 289 278 267 256 243 246 252 242 237 243 245 241 229 230 227 229 228 227 226
Height
10883 10877 10873 10870 10867 10864 10860 10853 10851 10851 10846 10842 10844 10842 10834 10824 10816 10788 10784 10775 10770 10765 10761 10757 10752 10744 10739 10729 10717 10710 10707 10700 10691 10682 10673 10662 10651 10640 10629 10619 10608 10599 10589 10581
10878 10873 10869 10867 10860 10855 10848 10844 10845 10843 10842 10838 10838 10839 10826 10812 10801 10785 10775 10766 10758 10752 10745 10740 10736 10729 10722 10715 10702 10694 10692 10682 10674 10662 10651 10640 10630 10618 10607 10596 10584 10575 10564 10556
10874 10869 10866 10863 10854 10853 10847 10843 10836 10830 10830 10830 10828 10825 10814 10803 10797 10781 10767 10759 10754 10743 10735 10727 10724 10714 10708 10699 10690 10678 10673 10663 10654 10645 10630 10620 10611 10600 10588 10576 10564 10554 10545 10536
10868 10863 10858 10858 10854 10849 10843 10841 10833 10823 10815 10815 10809 10804 10800 10794 10789 10769 10758 10753 10747 10738 10728 10719 10712 10704 10696 10687 10674 10664 10656 10647 10637 10625 10614 10601 10589 10578 10567 10557 10548 10539 10529 10520
10861 10856 10851 10847 10843 10841 10838 10834 10825 10812 10805 10801 10790 10785 10777 10774 10770 10763 10753 10743 10735 10732 10723 10711 10703 10692 10683 10675 10667 10654 10644 10633 10622 10609 10598 10586 10575 10565 10556 10546 10538 10528 10517 10508
10856 10853 10850 10843 10840 10836 10831 10824 10815 10800 10796 10787 10773 10767 10763 10758 10754 10748 10738 10730 10724 10720 10710 10698 10691 10681 10672 10663 10656 10641 10631 10618 10607 10596 10583 10574 10565 10556 10547 10539 10529 10518 10507 10497
10851 10848 10846 10842 10837 10828 10822 10816 10808 10793 10780 10770 10761 10754 10751 10743 10738 10732 10726 10718 10712 10704 10695 10682 10672 10663 10655 10647 10638 10627 10616 10603 10592 10581 10572 10564 10557 10549 10541 10532 10521 10510 10498 10486
10847 10847 10844 10838 10834 10826 10818 10806 10795 10782 10770 10761 10753 10743 10737 10732 10729 10725 10717 10708 10701 10692 10681 10670 10658 10650 10638 10631 10621 10612 10600 10588 10578 10570 10563 10556 10550 10545 10537 10528 10516 10503 10491 10478
10842 10837 10834 10832 10827 10819 10808 10798 10786 10774 10765 10753 10746 10737 10730 10727 10723 10717 10708 10700 10690 10683 10673 10660 10650 10638 10626 10614 10603 10596 10586 10577 10569 10562 10557 10551 10547 10541 10533 10524 10513 10501 10487 10474
10838 10833 10828 10820 10812 10806 10800 10792 10783 10767 10758 10751 10740 10735 10729 10723 10715 10707 10701 10691 10679 10671 10660 10647 10636 10624 10612 10601 10590 10582 10575 10568 10563 10557 10552 10548 10544 10538 10530 10522 10513 10501 10489 10478
10833 10829 10824 10818 10809 10801 10790 10777 10773 10765 10755 10745 10736 10727 10718 10713 10701 10693 10688 10678 10668 10662 10654 10643 10629 10619 10608 10597 10587 10577 10569 10562 10557 10552 10550 10546 10543 10536 10530 10522 10514 10505 10494 10482
10826 10823 10819 10812 10805 10797 10789 10782 10767 10759 10748 10739 10730 10719 10710 10703 10696 10684 10674 10669 10658 10649 10642 10633 10620 10608 10601 10590 10580 10571 10563 10557 10553 10551 10549 10547 10543 10538 10533 10525 10516 10509 10500 10491
10823 10815 10813 10808 10800 10792 10781 10770 10762 10752 10743 10733 10722 10715 10707 10697 10687 10678 10670 10663 10655 10645 10634 10622 10613 10601 10592 10583 10574 10566 10559 10554 10552 10551 10548 10546 10543 10539 10534 10528 10521 10514 10507 10499
10816 10810 10803 10797 10791 10783 10775 10766 10755 10745 10737 10730 10718 10708 10699 10691 10683 10673 10663 10653 10645 10635 10625 10617 10608 10597 10588 10579 10570 10563 10557 10552 10551 10550 10548 10546 10544 10540 10536 10531 10525 10521 10514 10508
10812 10805 10797 10791 10783 10776 10768 10760 10747 10738 10728 10720 10710 10701 10690 10681 10671 10661 10651 10641 10633 10626 10618 10608 10599 10592 10582 10575 10567 10560 10555 10551 10550 10549 10547 10546 10544 10540 10537 10533 10529 10525 10521 10516
10804 10799 10792 10784 10776 10766 10760 10751 10739 10726 10717 10706 10697 10690 10682 10672 10662 10652 10642 10632 10622 10614 10606 10599 10590 10584 10578 10571 10563 10557 10552 10548 10548 10547 10546 10545 10543 10541 10538 10536 10533 10530 10526 10522
10798 10791 10785 10777 10768 10759 10750 10742 10734 10720 10707 10697 10689 10677 10669 10662 10652 10640 10631 10622 10611 10604 10597 10590 10582 10574 10569 10563 10559 10553 10548 10544 10544 10544 10544 10543 10542 10542 10540 10537 10535 10534 10531 10528
10792 10785 10778 10771 10761 10751 10740 10731 10726 10715 10699 10690 10680 10670 10658 10649 10642 10627 10620 10612 10600 10590 10582 10578 10573 10565 10560 10556 10552 10548 10544 10539 10538 10539 10540 10540 10540 10540 10540 10538 10537 10536 10534 10533
10785 10777 10772 10762 10754 10743 10730 10722 10710 10702 10694 10677 10665 10654 10642 10628 10619 10613 10605 10595 10586 10575 10568 10562 10560 10555 10549 10546 10544 10541 10538 10535 10532 10533 10534 10535 10536 10536 10538 10538 10538 10538 10537 10535
10776 10770 10762 10752 10746 10734 10724 10712 10699 10688 10678 10664 10651 10640 10631 10618 10606 10592 10584 10577 10572 10563 10555 10550 10543 10541 10538 10534 10533 10532 10530 10528 10526 10525 10527 10529 10531 10531 10533 10535 10535 10535 10535 10535
10769 10761 10756 10746 10738 10727 10716 10701 10689 10676 10663 10650 10637 10624 10614 10600 10585 10575 10563 10553 10546 10543 10536 10532 10528 10525 10521 10521 10520 10521 10520 10520 10519 10518 10519 10522 10524 10525 10527 10529 10531 10531 10532 10532
10760 10754 10745 10737 10727 10717 10701 10688 10675 10664 10647 10633 10621 10607 10595 10580 10564 10550 10537 10526 10517 10513 10510 10509 10509 10510 10504 10503 10506 10509 10510 10509 10509 10509 10511 10513 10515 10518 10520 10522 10524 10526 10528 10529
10751 10744 10736 10728 10718 10706 10694 10679 10666 10652 10637 10620 10607 10590 10572 10556 10541 10526 10513 10502 10492 10486 10484 10483 10483 10487 10490 10489 10490 10493 10495 10496 10497 10498 10500 10503 10504 10509 10511 10514 10516 10519 10521 10523
10744 10736 10725 10716 10706 10695 10682 10665 10651 10638 10623 10606 10588 10566 10546 10528 10513 10500 10488 10480 10473 10468 10464 10463 10463 10463 10465 10469 10472 10474 10477 10482 10483 10486 10488 10491 10493 10498 10502 10505 10507 10510 10513 10514
10737 10728 10718 10707 10695 10684 10672 10657 10641 10625 10607 10588 10569 10551 10532 10514 10497 10485 10473 10463 10455 10450 10447 10446 10446 10445 10446 10448 10453 10456 10458 10463 10468 10472 10475 10478 10481 10486 10489 10493 10497 10499 10502 10505
10728 10718 10709 10697 10682 10669 10655 10641 10627 10609 10594 10576 10555 10536 10518 10502 10488 10474 10462 10453 10446 10440 10435 10433 10432 10432 10431 10432 10433 10438 10440 10443 10450 10455 10460 10464 10467 10472 10475 10479 10484 10488 10491 10494